XMM-NEWTON

Last updated on Wed Sep 17 2025 00:03:34 GMT+0000 (Coordinated Universal Time)

1 25989U 99066A 25261.10948636 .00000057 00000+0 00000+0 0 9996 2 25989 65.8246 286.5680 4788071 69.7309 0.1017 0.50134345 21647
UTC large
Height (km)
Speed (km/s)
/
Latitude / Longitude
Inclination (degrees)
Orbital Period (minutes)
Azimuth
Elevation
Range (km)
Doppler Factor

Next 0 passes for location: London (51.5072 / 0.1276)

Sorry there are no passes over London.